User: anonymous   Login
Location: Unspecified
(0.0000°N, 0.0000°E)
Time: 19:16:42
(UTC+00:00)
Language:

Tiangong 1 - Orbit

View from above orbital plane
View from above orbital plane
View from above satellite
View from above satellite

Ground track
Ground track

The orbit data is extracted from the following two-line orbital elements,

1 37820U 11053A   15060.45993929  .00048915  00000-0  37511-3 0  9999
2 37820 042.7657 201.1174 0009490 098.8857 008.2361 15.71237784196445
Epoch (UTC): 01 March 2015 11:02:18
Eccentricity: 0.0009490
inclination: 42.7657°
perigee height: 349 km
apogee height: 362 km
right ascension of ascending node: 201.1174°
argument of perigee: 98.8857°
revolutions per day: 15.71237784
mean anomaly at epoch: 8.2361°
orbit number at epoch: 19644

The dashed part of the orbit path shows where the satellite is in the earth's shadow,  

DLR